Regional Weather Roundup
Issued by NWS Grand Forks, ND

Home | Current Version | Previous Version | Graphics & Text | Print | Product List | Glossary On
Versions: 1 2 3 4 5 6 7 8 9 10 11 12 13 14 15 16 17 18 19 20 21 22 23 24 25 26 27 28 29 30 31 32 33 34 35 36 37 38 39 40 41 42 43 44 45 46 47 48 49 50
000
ASUS43 KFGF 242310
RWRFGF
PRAIRIE TO PINES  WEATHER ROUNDUP
NATIONAL WEATHER SERVICE EASTERN NORTH DAKOTA/GRAND FORKS ND
600 PM CDT TUE APR 24 2018

 **SATELLITE DATA USED TO AUGMENT SKY COVER AT AUTOMATED STATIONS**
 *****  WEATHER ACROSS EASTERN NORTH DAKOTA  *****

CITY           SKY/WX    TMP DP  RH WIND       PRES   REMARKS
GRAND FORKS    FAIR      52  28  39 N17G24    30.34F
GRAND FRKS AFB FAIR      53  25  33 N14       30.34F
GRAND FRKS NWS   N/A     54  25  33 N16       30.32S
DEVILS LAKE    FAIR      54  27  35 N12G21    30.36F
FARGO          FAIR      53  28  38 N22G31    30.33S
WAHPETON ARPT  FAIR      52  28  40 N22       30.32S
$$

 ***** WEATHER ACROSS CENTRAL AND WESTERN NORTH DAKOTA  *****

CITY           SKY/WX    TMP DP  RH WIND       PRES   REMARKS
BISMARCK       FAIR      58  24  27 NW7G21    30.37F
MINOT          FAIR      60  17  18 VRB5      30.33F
JAMESTOWN      FAIR      55  27  34 N17       30.34S
MINOT AFB      FAIR      60  19  20 W7        30.32F
GARRISON         N/A     58  21  24 NW13      30.35F
WILLISTON      FAIR      62  21  20 W9        30.34F
DICKINSON      FAIR      57  21  24 N6        30.36F
HETTINGER      FAIR      51  24  34 NW7       30.41F
$$

 *****  OTHER AIRPORT OBSERVATIONS IN OUR AREA  *****

CITY           SKY/WX    TMP DP  RH WIND       PRES   REMARKS
WALHALLA       FAIR      54  25  32 N13       30.35F
GRAFTON AIRPOR FAIR      54  23  30 N15       30.37S
VALLEY CITY AR FAIR      54  28  37 N16G23    30.36R
CANDO          FAIR      57  23  26 N12       30.36F
CAVALIER APRT    N/A     52  25  35 N10G16    30.35S
GWINNER          N/A     54  32  43 N18G25    30.33F
SHEYENNE NWR     N/A     54  27  35 N14       29.95S
ROLLA          FAIR      54  25  32 NW13      30.34F
 ***** THE ABOVE OBSERVATIONS ARE NON NWS ARE NOT QUALITY
       CONTROLLED AND MAY MIS-REPORT RAIN FOR SNOW...
$$

  *****  WEATHER ACROSS NORTHERN MINNESOTA  *****

CITY           SKY/WX    TMP DP  RH WIND       PRES   REMARKS
FLAG ISLAND    FAIR      43  21  42 N5        30.31F
WARROAD        FAIR      43  27  52 E7        30.33F
ROSEAU         FAIR      48  28  46 N9        30.32F
HALLOCK        FAIR      54  18  24 N14G22    30.34F
THF RVR FALLS  FAIR      50  23  34 N16G22    30.33S
BAUDETTE       FAIR      43  23  45 N13       30.32F
WASKISH        FAIR      43  25  49 N8        30.32R
CROOKSTON      FAIR      52  28  40 N18       30.34S
STEPHEN NDAWN    N/A     52  21  30 N13         N/A
GREENBUSH NDAW   N/A     48  28  46 N12         N/A
$$
  *****  WEATHER ACROSS CENTRAL AND WEST MINNESOTA  *****

CITY           SKY/WX    TMP DP  RH WIND       PRES   REMARKS
FOSSTON        FAIR      52  28  40 N21       30.31S
BEMIDJI        FAIR      48  25  41 N17G23    30.28R
PARK RAPIDS    FAIR      52  26  36 N16G30    30.24S
ELBOW LAKE     FAIR      50  31  48 NW17      30.29R
WADENA         FAIR      54  30  40 NW15G22   30.24S
DETROIT LAKES  FAIR      50  28  43 N13G22    30.29S
MOORHEAD       FAIR      54  28  37 N22G28    30.33S
FERGUS FALLS   FAIR      54  30  40 N14G26    30.27S
MORRIS MN      FAIR      54  36  50 N20       30.26S
STAPLES        FAIR      54  21  28 N13G18    30.23S
$$
  *****  WEATHER ELSEWHERE ACROSS MINNESOTA  *****

CITY           SKY/WX    TMP DP  RH WIND       PRES   REMARKS
DULUTH         FAIR      54  26  34 N16G25    30.17R
INTRNTL FALLS  FAIR      44  24  45 N12       30.29S
ELY            FAIR      45  21  39 N9G20     30.22R
CLOQUET        FAIR      54  19  26 N16G25    30.18R
WHEATON        FAIR      54  30  40 N17G26    30.32S
BRAINERD       FAIR      56  24  29 N12G21    30.23R
HIBBING        FAIR      48  25  40 N13G30    30.21R
ALEXANDRIA     FAIR      55  29  36 N16G23    30.26R
SAINT CLOUD    FAIR      57  31  37 N12G20    30.20S
MINNEAPOLIS    PTSUNNY   57  39  51 NW13      30.18S
$$

  *****  WEATHER ACROSS SOUTH DAKOTA  *****

CITY           SKY/WX    TMP DP  RH WIND       PRES   REMARKS
SIOUX FALLS    CLOUDY    46  37  71 N18G28    30.26R
BROOKINGS      CLOUDY    46  39  76 N15G23    30.27S
WATERTOWN      FAIR      51  34  52 N20G28    30.28S
HURON          CLOUDY    45  39  79 N9        30.34R
SISSETON         N/A     53  34  48 N22G30    30.30F
ABERDEEN       FAIR      55  32  41 N17       30.34S
MITCHELL       CLOUDY    46  39  76 N15       30.33R
PIERRE         FAIR      49  38  65 W9        30.37F
MOBRIDGE       FAIR      58  28  32 N14G21    30.35S
RAPID CITY     FAIR      50  25  37 N17       30.41F
$$

  *****  SOME WEATHER IN NEARBY STATES *****

CITY           SKY/WX    TMP DP  RH WIND       PRES   REMARKS
GLASGOW MT     FAIR      65  22  19 S13       30.31F
GREAT FALLS MT FAIR      64  20  18 SW16G29   30.26F
CHEYENNE WY    PTSUNNY   37  24  59 N17G25    30.38S
SCOTTSBLUFF NE CLOUDY    44  32  62 N10       30.41S
OMAHA NE       CLOUDY    62  45  53 NW15      30.15R
DES MOINES IA  PTSUNNY   70  40  33 N14       30.07R
DAVENPORT IA   FAIR      74  27  17 N12       30.00S
CHICAGO IL     FAIR      62  47  57 NE9       29.99R
EAU CLAIRE WI  CLOUDY    58  32  37 N15G24    30.12R
LA CROSSE WI   CLOUDY    69  37  30 N13       30.04R
$$

  *****  SOME NATIONAL WEATHER *****

CITY           SKY/WX    TMP DP  RH WIND       PRES   REMARKS
LA GUARDIA NY  CLOUDY    60  39  45 SE13      30.22F
RALEIGH NC     PTSUNNY   64  62  93 SE13G20   29.83F
ATLANTA GA     PTSUNNY   66  57  72 NW8       29.85S
NEW ORLEANS LA FAIR      78  57  48 NW12G17   29.95R
OKLAHOMA CITY  FAIR      76  45  33 N9        30.05S
ALBUQUERQUE NM PTSUNNY   81  14   8 S7        30.01F
SALT LAKE CITY FAIR      65  31  28 W14       30.23F
LOS ANGELES CA FAIR      61  52  72 W15       30.01F
BOISE ID       FAIR      68  29  23 S14       30.24F
SEATTLE WA     PTSUNNY   77  36  22 N14       30.09F
$$

*** WEATHER ACROSS MANITOBA...SASKATCHEWAN AND ONTARIO ***
                ***ONTARIO***

CITY           SKY/WX    TMP DP  RH WIND       PRES   REMARKS
GERALDTON      CLOUDY    37  23  56 N8        30.18R
THUNDER BAY    MOSUNNY   46  25  42 N15G25    30.20R
SIOUX LOOKOUT  MOSUNNY   41  19  42 N12G18    30.28S
TORONTO        LGT RAIN  48  39  71 SE6       30.08F
BIG TROUT LK   SUNNY     37  14  38 NW9       30.25F
PICKLE LAKE    MOSUNNY   37  19  48 VRB3      30.26R
DRYDEN         SUNNY     43  19  39 NE9       30.29R
KENORA         SUNNY     45  19  36 NW3       30.30F
$$
                *** MANITOBA***

CITY           SKY/WX    TMP DP  RH WIND       PRES   REMARKS
BRANDON        MOSUNNY   59  27  29 W8        30.29F
DAUPHIN        SUNNY     63  27  25 W12       30.23F
ISLAND LAKE    MOSUNNY   45  21  39 W10       30.23F
PILOT MOUND      N/A     54  25  32 NW8         N/A
THE PAS        MOSUNNY   55  32  41 SE16      30.04F
THOMPSON       PTSUNNY   46  25  42 S8G22     30.02F
WINNIPEG       MOSUNNY   52  21  30 N6        30.34F
LYNN LAKE      MOSUNNY   52  30  43 S15G22    29.81F
CHURCHILL      CLOUDY    37  27  65 SW15G21   29.99F
GILLAM         MOSUNNY   39  25  56 S14G21    30.10F
$$
                ***SASKATCHEWAN***

CITY           SKY/WX    TMP DP  RH WIND       PRES   REMARKS
ESTEVAN        MOSUNNY   61  23  23 SW10G18   30.30
KINDERSLEY     PTSUNNY   68  14  12 SW23G30   30.10F
LLOYDMINSTER   PTSUNNY   70  23  17 W16G24    30.02F
PRINCE ALBERT  PTSUNNY   68  28  22 SW17G23   30.05F
REGINA         PTSUNNY   66  21  18 W17G25    30.22F
YORKTON        SUNNY     63  28  27 W15G24    30.19F
N. BATTLEFORD    N/A     70  25  18 SW21G30   30.06F
LA RONGE       PTSUNNY   64  25  22 SW12      29.91F
SASKATOON      PTSUNNY   68  23  18 SW22G29   30.10F
SWIFT CURRENT  SUNNY     64  23  20 SW21G31   30.19F
$$
NOTE: THESE ARE AUTOMATED STATIONS WITH LIMITED QUALITY CONTROL
      "FAIR" INDICATES FEW OR NO CLOUDS BELOW 12,000 FEET WITH NO
      SIGNIFICANT WEATHER AND/OR OBSTRUCTIONS TO VISIBILITY.
      SKY/WX - SKY CONDITION AND SIGNIFICANT WEATHER.
      TMP - AIR TEMPERATURE.    DP   - DEWPOINT TEMPERATURE.
      RH  - RELATIVE HUMIDITY.  PRES - PRESSURE.
      HX  - HEAT INDEX.         WCI  - WIND CHILL INDEX.
$




USA.gov is the U.S. government's official web portal to all federal, state and local government web resources and services.